This is the latest recevied weather packets stored in our database for station/object KT5AL. If no packets are shown the sender has not sent any weather packets the latest 10 day(s).
| Time | Temp. | Humidity | Pressure | Rain* | Wind** | Luminosity | Snow |
|---|---|---|---|---|---|---|---|
| 1777826138 | 23.89° C | 43% | 1019.2 hPa | 0 mm | - | - | - |
| 1777825809 | 23.33° C | 45% | 1019.2 hPa | 0 mm | - | - | - |
| 1777825506 | 23.33° C | 43% | 1019.2 hPa | 0 mm | - | - | - |
| 1777825209 | 23.33° C | 45% | 1019.2 hPa | 0 mm | - | - | - |
| 1777824906 | 23.33° C | 45% | 1019.2 hPa | 0 mm | - | - | - |
| 1777824609 | 22.78° C | 45% | 1019.2 hPa | 0 mm | - | - | - |
| 1777824306 | 23.33° C | 48% | 1019.5 hPa | 0 mm | - | - | - |
| 1777824006 | 23.33° C | 48% | 1019.5 hPa | 0 mm | - | - | - |
| 1777823703 | 22.78° C | 50% | 1019.5 hPa | 0 mm | - | - | - |
| 1777823406 | 22.22° C | 49% | 1019.5 hPa | 0 mm | - | - | - |
| 1777823103 | 22.78° C | 50% | 1019.9 hPa | 0 mm | - | - | - |
| 1777822806 | 22.22° C | 50% | 1019.9 hPa | 0 mm | - | - | - |
| 1777822503 | 22.22° C | 50% | 1019.9 hPa | 0 mm | - | - | - |
| 1777822203 | 21.67° C | 50% | 1019.9 hPa | 0 mm | - | - | - |
| 1777821906 | 21.67° C | 51% | 1019.9 hPa | 0 mm | - | - | - |
| 1777821603 | 21.67° C | 51% | 1019.9 hPa | 0 mm | - | - | - |
| 1777821307 | 21.67° C | 50% | 1019.9 hPa | 0 mm | - | - | - |
| 1777821009 | 21.67° C | 53% | 1019.9 hPa | 0 mm | - | - | - |
| 1777820707 | 21.11° C | 53% | 1019.9 hPa | 0 mm | - | - | - |
| 1777820404 | 21.11° C | 56% | 1019.9 hPa | 0 mm | - | - | - |
| 1777820107 | 21.11° C | 55% | 1019.9 hPa | 0 mm | - | - | - |
| 1777819804 | 20.56° C | 55% | 1019.9 hPa | 0 mm | - | - | - |
| 1777819508 | 20.56° C | 59% | 1020.2 hPa | 0 mm | - | - | - |
| 1777819205 | 20° C | 58% | 1020.2 hPa | 0 mm | - | - | - |
| 1777818908 | 20° C | 62% | 1020.5 hPa | 0 mm | - | - | - |
* Rain latest hour (hover to see other rain measurements)
** Current wind speed in m/s (hover to see current wind gust speed)